Location: Newark
(41.0400°S, 62.7845°W)
Time: 16:06:49
(UTC+00:00)

Vanguard 2 Rocket - Pass Details

Date: 28 November 2021
Orbit: 553 x 3325 km, 32.9° (Epoch: 23 January)

Event Time Altitude Azimuth Distance (km) Brightness Sun altitude
Rises 09:39:34 0° 320° (NW) 7,089 10.9 10.3°
Reaches altitude 10° 09:45:24 10° 327° (NNW) 5,792 10.6 11.4°
Maximum altitude 09:59:06 33° 22° (NNE) 3,258 9.9 13.8°
Drops below altitude 10° 10:08:05 10° 80° (E) 3,799 11.5 15.5°
Sets 10:11:00 0° 90° (E) 4,444 12.0 16.0°
